Flight Track Log - Related Links

Times and Time Zones

All times are in EDT time to prevent confusion due to time zone crossing. See the CTL311 flight status page for this flight to view local times or setup timezone preferences in your user account.

Time Position Orientation Groundspeed Altitude Reporting Facility
EDT Latitude Longitude Course Direction KTS MPH feet Rate Location/Type
Tue 03:11:44 AM 40.1044 -83.0714 336° Northwest 128 147 1,900  Level Indianapolis Center
Tue 03:12:51 AM 40.1442 -83.0942 336° Northwest 152 175 2,800 750 Climbing Indianapolis Center
Tue 03:13:52 AM 40.1858 -83.1203 334° Northwest 155 178 3,500 645 Climbing Indianapolis Center
Tue 03:14:52 AM 40.2233 -83.1456 333° Northwest 155 178 4,100 545 Climbing Indianapolis Center
Tue 03:15:53 AM 40.2628 -83.1711 334° Northwest 160 184 4,600 595 Climbing Indianapolis Center
Tue 03:16:53 AM 40.3000 -83.1992 330° Northwest 157 181 5,300 694 Climbing Indianapolis Center
Tue 03:17:54 AM 40.3397 -83.2250 334° Northwest 152 175 6,000 298 Climbing Indianapolis Center
Tue 03:19:14 AM 40.3892 -83.2578 333° Northwest 164 189 6,000  Level Indianapolis Center
Tue 03:20:15 AM 40.4336 -83.2881 333° Northwest 176 203 6,000 -50 Level Indianapolis Center
Tue 03:21:15 AM 40.4794 -83.3139 337° Northwest 179 206 5,900  Descending Indianapolis Center
Tue 03:22:15 AM 40.5258 -83.3431 334° Northwest 182 209 6,000 50 Climbing Indianapolis Center
Tue 03:23:15 AM 40.5719 -83.3711 335° Northwest 181 208 6,000  Level Indianapolis Center
Tue 03:24:15 AM 40.6167 -83.4006 333° Northwest 179 206 6,000  Level Indianapolis Center
Tue 03:25:16 AM 40.6619 -83.4247 338° Northwest 177 204 6,000 -50 Level Indianapolis Center
Tue 03:26:16 AM 40.7022 -83.4625 325° Northwest 181 208 5,900 -50 Descending Indianapolis Center
Tue 03:27:16 AM 40.7422 -83.5006 324° Northwest 178 205 5,900 50 Level Indianapolis Center
Tue 03:28:16 AM 40.7867 -83.5311 333° Northwest 178 205 6,000 -50 Climbing Indianapolis Center
Tue 03:29:16 AM 40.8317 -83.5589 335° Northwest 178 205 5,800 -50 Descending Indianapolis Center
Tue 03:30:16 AM 40.8778 -83.5867 336° Northwest 179 206 5,900 50 Climbing Indianapolis Center
Tue 03:31:17 AM 40.9219 -83.6153 334° Northwest 177 204 5,900  Level Indianapolis Center

Login

Don't have an account? Register now (free) for customized features, flight alerts, and more!